[Iaude] MPEC J291: 2024 JO16 [a=1.62,e=0.41,i=2.7,H=26.2]

mpec at cfa.harvard.edu mpec at cfa.harvard.edu
Mon May 13 06:54:37 EDT 2024


M.P.E.C. 2024-J291                                 Issued 2024 May 13, 10:53 UT

     The Minor Planet Electronic Circulars contain information on unusual
         minor planets, routine data on comets and natural satellites,
         and occasional editorial announcements.  They are published
    on behalf of Division F of the International Astronomical Union by the
          Minor Planet Center, Smithsonian Astrophysical Observatory,
                          Cambridge, MA 02138, U.S.A.
			  
             Prepared using the Tamkin Foundation Computer Network

                              MPC at CFA.HARVARD.EDU
            URL https://www.minorplanetcenter.net/    ISSN 1523-6714

                                   2024 JO16                                    


Observations:
     K24J16O* C2024 05 09.46296815 20 47.261-08 25 25.43         21.78wXEJ291F51
     K24J16O  C2024 05 09.47575215 20 48.779-08 25 32.16         21.77wXEJ291F51
     K24J16O  C2024 05 09.48849415 20 50.294-08 25 39.01         21.75wXEJ291F51
     K24J16O  C2024 05 09.50125115 20 51.814-08 25 45.96         22.01wXEJ291F51
     K24J16O KC2024 05 10.29968215 23 03.638-08 33 55.69         21.41GVEJ291I52
     K24J16O KC2024 05 10.30509715 23 04.340-08 33 59.08         21.63GVEJ291I52
     K24J16O KC2024 05 10.31050315 23 05.118-08 34 03.04         20.94GVEJ291I52
     K24J16O 3C2024 05 10.39686315 23 21.266-08 34 39.80         21.63GVEJ291T14
     K24J16O 3C2024 05 10.39784315 23 21.397-08 34 40.44         21.48GVEJ291T14
     K24J16O 3C2024 05 10.39882815 23 21.528-08 34 41.13         21.23GVEJ291T14
     K24J16O 1C2024 05 10.98158 15 25 03.06 -08 41 47.9          22.2 VXEJ291033
     K24J16O 1C2024 05 10.98837 15 25 04.13 -08 41 52.8          22.0 VXEJ291033
     K24J16O 1C2024 05 10.99211 15 25 04.70 -08 41 55.3          21.6 VXEJ291033
     K24J16O 1C2024 05 12.00464 15 28 22.16 -08 54 39.8          21.9 VXEJ291033
     K24J16O 1C2024 05 12.00756 15 28 22.68 -08 54 42.1          22.1 VXEJ291033
     K24J16O 1C2024 05 12.01048 15 28 23.20 -08 54 44.4          21.7 VXEJ291033
     K24J16O 1C2024 05 12.99601 15 32 02.35 -09 09 09.2          21.4 VXEJ291033
     K24J16O 1C2024 05 12.99894 15 32 02.93 -09 09 12.0          21.2 VXEJ291033
     K24J16O 1C2024 05 13.00185 15 32 03.56 -09 09 14.5          21.4 VXEJ291033
     K24J16O KC2024 05 13.20705215 32 55.30 -09 12 18.4          21.3 GVEJ291H21
     K24J16O KC2024 05 13.21283015 32 56.52 -09 12 24.0          21.3 GVEJ291H21

Observer details:
033 Karl Schwarzschild Observatory, Tautenburg.  Observers S. Melnikov, C.
    Hogner, F. Ludwig, M. Hartmann, B. Stecklum, C. Heogner.  Measurer B.
    Stecklum.  1.34-m f/3 Schmidt + CCD.
F51 Pan-STARRS 1, Haleakala.  Observers J. Herman, T. Lowe, P. Minguez, A.
    Schultz, I. Smith.  Measurers K. Chambers, T. de Boer, J. Fairlamb, H.
    Gao, M. Huber, C.-C. Lin, E. Magnier, Y. Ramanjooloo, R. Wainscoat, R.
    Weryk.  1.8-m Ritchey-Chretien + CCD.
H21 Astronomical Research Observatory, Westfield.  Observer R. Holmes.
    Measurers T. Linder, R. Holmes, L. Horn.  1.3-m f/4.0 astrograph + CCD.
I52 Steward Observatory, Mt. Lemmon Station.  Observer H. Groeller.  Measurers
    T. Beuden, V. F. Carvajal, D. Fay, J. B. Fazekas, D. C. Fuls, A. R. Gibbs,
    A. D. Grauer, H. Groeller, J. K. Hogan, R. A. Kowalski, S. M. Larson, G.
    J. Leonard, D. Rankin, R. L. Seaman, F. C. Shelly, K. W. Wierzchos.  1.0-m
    prime focus + CCD.
T14 Canada-France-Hawaii Telescope, Maunakea.  Observers R. Wainscoat, L.
    Wells, H. Flewelling.  Measurers R. Weryk, R. Wainscoat.  3.6-m f/4.1
    reflector + CCD.

Orbital elements:
2024 JO16                                                Earth MOID = 0.0023 AU
Epoch 2024 Mar. 31.0 TT = JDT 2460400.5                 Veres                   
M 316.60103              (2000.0)            P               Q                  
n   0.48011567     Peri.  219.45663     +0.28641744     +0.95712049             
a   1.6152465      Node    67.22585     -0.86671077     +0.27814702             
e   0.4082374      Incl.    2.69922     -0.40838400     +0.08096052             
P   2.05           H   26.20          G   0.15           U   8                  
Residuals in seconds of arc
240509 F51  0.0   0.1-    240510 T14  0.0   0.0     240512 033  0.0   0.1-
240509 F51  0.1+  0.1+    240510 T14  0.0   0.0     240512 033  0.1-  0.0
240509 F51  0.1+  0.1+    240510 T14  0.0   0.0     240512 033  0.2+  0.2+
240509 F51  0.1-  0.1-    240510 033  0.2+  0.3+    240512 033  0.2-  0.2+
240510 I52  0.1-  0.2+    240510 033  0.3+  0.1+    240513 033  0.2+  0.4+
240510 I52  0.5-  0.3+    240510 033  0.1+  0.2+    240513 H21  0.2-  0.1-
240510 I52  0.2+  0.3-    240512 033  0.1+  0.1-    240513 H21  0.2+  0.0

Ephemeris:
2024 JO16                a,e,i = 1.62, 0.41, 3                   q = 0.9558
Date    TT    R. A. (2000) Decl.     Delta      r    Elong.  Phase     V
2024 04 13    14 49 55.0 -07 40 20   0.2643  1.2533   159.2    16.5    24.7
...
2024 04 28    15 02 24.9 -07 36 24   0.1625  1.1663   168.1    10.2    23.2
...
2024 05 06    15 13 19.1 -07 59 52   0.1154  1.1226   170.1     8.9    22.4
...
2024 05 12    15 28 21.9 -08 53 04   0.08270 1.0918   170.3     9.0    21.6
2024 05 13    15 32 03.8 -09 07 34   0.07747 1.0869   170.3     9.0    21.4
2024 05 14    15 36 17.6 -09 24 28   0.07231 1.0820   170.3     9.0    21.3
...
2024 05 20    16 22 50.0 -12 28 47   0.04297 1.0540   168.7    10.8    20.2
...
2024 05 28    21 15 37.2 -17 47 26   0.02077 1.0210   110.9    68.0    20.2
...
2024 06 12    01 41 33.3 -00 17 01   0.08143 0.9752    58.3   117.6    25.4

M. P. C. Staff               (C) Copyright 2024 MPC           M.P.E.C. 2024-J291





More information about the Iaude mailing list